Weather History for Mount Holly, NJ

Change the Weather History Date:

Sunday, May 12, 2013

  Actual Average (KWRI) Record (KWRI)
Temperature  
Mean Temperature 60 °F -  
Max Temperature 66 °F 69 °F 89 °F (2001)
Min Temperature 53 °F 48 °F 44 °F (1999)
Degree Days  
Heating Degree Days 4    
Growing Degree Days 10 (Base 50)    
Moisture  
Dew Point 39 °F    
Average Humidity 50    
Maximum Humidity 90    
Minimum Humidity 25    
Precipitation  
Precipitation 0.05 in - - ()
Sea Level Pressure  
Sea Level Pressure 29.80 in    
Wind  
Wind Speed 7 mph (West)    
Max Wind Speed 17 mph    
Max Gust Speed 28 mph    
Visibility 10 miles    
Events Rain    
Averages and records for this station are not official NWS values.
T = Trace of Precipitation, MM = Missing Value Source: NWS Daily Summary

Daily Weather History Graph

Daily Weather History Graph

Search for Another Location

Airport:

Trip Planner

Search our weather history database for the weather conditions in past years. The results will help you decide how hot, cold, wet, or windy it might be!

Date:

Astronomy

May. 12, 2013 Rise Set
Actual Time 5:46 AM EDT 8:05 PM EDT
Civil Twilight 5:16 AM EDT 8:35 PM EDT
Nautical Twilight 4:39 AM EDT 9:13 PM EDT
Astronomical Twilight 3:58 AM EDT 9:54 PM EDT
Moon 7:40 AM EDT (5/12) 10:30 PM EDT (5/12)
Length of Visible Light 15h 18m
Length of Day
14h 18m
Waxing Crescent, 6% of the Moon is Illuminated
May 12
Waxing Crescent
May 18
First Quarter
May 25
Full
May 31
Last Quarter
Jun 8
New

Hourly Weather History & Observations

Time (EDT) Temp. Dew Point Humidity Pressure Visibility Wind Dir Wind Speed Gust Speed Precip Events Conditions
12:54 AM 64.9 °F 57.9 °F 78% 29.74 in 10.0 mi WNW 4.6 mph - N/A   Mostly Cloudy
1:54 AM 62.1 °F 55.0 °F 78% 29.71 in 10.0 mi WNW 4.6 mph - 0.01 in Rain Light Rain
2:54 AM 61.0 °F 54.0 °F 78% 29.73 in 8.0 mi West 6.9 mph - 0.00 in Rain Light Rain
3:54 AM 59.0 °F 55.0 °F 87% 29.73 in 8.0 mi SW 3.5 mph - 0.04 in   Overcast
4:54 AM 59.0 °F 55.9 °F 90% 29.72 in 9.0 mi Calm Calm - N/A   Overcast
5:54 AM 59.0 °F 54.0 °F 83% 29.74 in 10.0 mi West 3.5 mph - 0.00 in   Overcast
6:54 AM 57.0 °F 48.9 °F 74% 29.76 in 10.0 mi WNW 4.6 mph - 0.00 in   Mostly Cloudy
7:54 AM 57.9 °F 48.0 °F 70% 29.74 in 10.0 mi WNW 3.5 mph - N/A   Partly Cloudy
8:54 AM 61.0 °F 46.9 °F 60% 29.75 in 10.0 mi Variable 6.9 mph - N/A   Partly Cloudy
9:54 AM 63.0 °F 46.9 °F 56% 29.75 in 10.0 mi WNW 8.1 mph 18.4 mph N/A   Scattered Clouds
10:54 AM 63.0 °F 46.0 °F 54% 29.76 in 10.0 mi West 9.2 mph - N/A   Mostly Cloudy
11:54 AM 66.0 °F 39.9 °F 38% 29.75 in 10.0 mi West 16.1 mph 24.2 mph N/A   Partly Cloudy
12:54 PM 64.9 °F 39.0 °F 39% 29.76 in 10.0 mi WNW 11.5 mph 24.2 mph N/A   Partly Cloudy
1:54 PM 64.0 °F 32.0 °F 30% 29.78 in 10.0 mi West 15.0 mph 25.3 mph N/A   Clear
2:54 PM 64.0 °F 27.0 °F 25% 29.78 in 10.0 mi West 17.3 mph 27.6 mph N/A   Clear
3:54 PM 63.0 °F 27.0 °F 26% 29.78 in 10.0 mi West 15.0 mph 26.5 mph N/A   Clear
4:54 PM 63.0 °F 30.0 °F 29% 29.81 in 10.0 mi WNW 15.0 mph 21.9 mph N/A   Clear
5:54 PM 61.0 °F 26.1 °F 26% 29.83 in 10.0 mi West 13.8 mph 26.5 mph N/A   Scattered Clouds
6:54 PM 60.1 °F 26.1 °F 27% 29.85 in 10.0 mi WNW 13.8 mph 26.5 mph N/A   Scattered Clouds
7:54 PM 57.9 °F 25.0 °F 28% 29.88 in 10.0 mi West 9.2 mph 18.4 mph N/A   Partly Cloudy
8:54 PM 57.0 °F 23.0 °F 27% 29.90 in 10.0 mi West 6.9 mph - N/A   Clear
9:54 PM 55.9 °F 25.0 °F 30% 29.94 in 10.0 mi West 9.2 mph - N/A   Clear
10:54 PM 55.0 °F 24.1 °F 30% 29.96 in 10.0 mi West 10.4 mph - N/A   Clear
11:54 PM 53.1 °F 25.0 °F 34% 29.98 in 10.0 mi West 9.2 mph - N/A   Clear